Regional Weather Roundup
Issued by NWS Cleveland, OH

Home | Current Version | Previous Version | Text Only | Print | Product List | Glossary Off
Versions: 1 2 3 4 5 6 7 8 9 10 11 12 13 14 15 16 17 18 19 20 21 22 23 24 25 26 27 28 29 30 31 32 33 34 35 36 37 38 39 40 41 42 43 44 45 46 47 48 49 50

000
ASUS41 KCLE 011710
RWRCLE
OHIO REGIONAL WEATHER ROUNDUP
NATIONAL WEATHER SERVICE CLEVELAND, OH
100 PM EDT WED OCT 01 2014

NOTE: "FAIR" INDICATES FEW OR NO CLOUDS BELOW 12,000 FEET WITH NO
SIGNIFICANT WEATHER AND/OR OBSTRUCTIONS TO VISIBILITY.

OHZ001>008-015>018-024>027-034-035-043-044-011800-
   NORTHWEST OHIO

CITY           SKY/WX    TMP DP  RH WIND       PRES   REMARKS
DEFIANCE       PTSUNNY   63  50  62 E6        30.07F
FINDLAY        CLOUDY    64  51  62 E3        30.05F
TOLEDO EXPRESS CLOUDY    62  50  64 VRB3      30.06F
TOLEDO EXEC    CLOUDY    64  51  62 E6        30.07S
LIMA           CLOUDY    65  51  60 S3        30.06F
$$

OHZ009>014-019>023-028>033-038-089-011800-
   NORTHEAST OHIO

CITY           SKY/WX    TMP DP  RH WIND       PRES   REMARKS
CLE-HOPKINS    PTSUNNY   66  57  72 CALM      30.06F
CLE-LAKEFRONT  PTSUNNY   65  59  81 N6        30.04F
CUY CO. ARPT   PTSUNNY   63  61  94 N9        30.05F
LORAIN-ELYRIA  PTSUNNY   69  56  62 S6        30.05F
ASHTABULA      PTSUNNY   69  58  67 MISG      30.05S
AKRON-CANTON   CLOUDY    61  55  81 SE5       30.05F
WOOSTER        CLOUDY    64  55  72 E6        30.06F
MANSFIELD      CLOUDY    62  54  74 E5        30.06S
YOUNGSTOWN     CLOUDY    60  56  86 SE3       30.05F
$$

OHZ042-051>053-060>062-070>072-077>081-011800-
  SOUTHWEST OHIO

CITY           SKY/WX    TMP DP  RH WIND       PRES   REMARKS
CINC-COVINGTON MOSUNNY   68  51  54 SE3       30.03F
CINC-LUNKEN    SUNNY     67  53  61 VRB3      30.04F
HAMILTON       SUNNY     63  53  70 NE5       30.06F
DAYTON         CLOUDY    57  52  83 SE3       30.08S FOG
WRIGHT-PAT AFB CLOUDY    57  53  86 VRB2      30.07R FOG
DAYTON GENERAL CLOUDY    56  53  90 NE7       30.06S FOG
WILMINGTON     PTSUNNY   60  52  74 N7        30.06S
$$

OHZ036-037-039>041-045>050-054>059-063>069-073>076-082>088-011800-
  CENTRAL AND SOUTHEAST OHIO

CITY           SKY/WX    TMP DP  RH WIND       PRES   REMARKS
COLUMBUS       PTSUNNY   66  49  54 S5        30.05S
OSU AIRPORT    PTSUNNY   62  50  64 N3        30.06R
BOLTON FIELD   CLOUDY    61  54  77 CALM      30.06S
RICKENBACK AFB PTSUNNY   62  50  65 CALM      30.05S
NEWARK         CLOUDY    59  53  80 E3        30.06S
MARION         PTSUNNY   64  52  64 CALM      30.06S
LANCASTER      CLOUDY    63  50  62 E5        30.05F
ZANESVILLE     PTSUNNY   64  52  64 NE7       30.04F
NEW PHILLY     CLOUDY    62  55  77 CALM      30.06S
$$


USA.gov is the U.S. government's official web portal to all federal, state and local government web resources and services.